User: anonymous   Login
Location: Peebles
(55.6412°N, 3.1714°W)
Time: 12:41:32
(UTC+00:00)
Language:

OBJECT-B - Orbit

View from above orbital plane
View from above orbital plane
View from above satellite
View from above satellite

Ground track
Ground track

The orbit data is extracted from the following two-line orbital elements,

1 40382U 15004B   21297.76272809 0.00014500  00000-0  24198-3 0    09
2 40382  96.9413 334.1559 0006855 332.8179  27.1820 15.51940568    02
Epoch (UTC): 24 October 2021 18:18:19
Eccentricity: 0.0006855
inclination: 96.9413°
perigee height: 406 km
apogee height: 416 km
right ascension of ascending node: 334.1559°
argument of perigee: 332.8179°
revolutions per day: 15.51940568
mean anomaly at epoch: 27.1820°
orbit number at epoch: 0

The dashed part of the orbit path shows where the satellite is in the earth's shadow,  

DLR